Terminal Aerodrome Forecast
Issued by NWS

Current Version | Previous Version | Text Only | Print | Product List | Glossary On
Versions: 1 2 3 4 5 6 7 8 9 10 11 12 13 14 15 16 17 18 19 20 21 22 23 24 25 26 27 28 29 30 31 32 33 34 35 36 37 38 39 40 41 42 43 44 45 46 47 48 49 50
000
FTUS41 KCTP 230533
TAFBFD
TAF
KBFD 230533Z 2306/2406 VRB03KT 2SM BR OVC002
     FM230800 VRB03KT 1/2SM FG OVC002
     FM231300 10004KT 5SM BR OVC025
     FM231600 12005KT P6SM BKN035
     FM240300 11003KT 4SM BR BKN025=

USA.gov is the U.S. government's official web portal to all federal, state and local government web resources and services.